Powrót do katalogu

COSMOS 970 DEB

AktywnyLEO
NORAD 10568·DEBRIS·🇷🇺 Russia

Wystrzelony Dec 21, 1977 z Baikonur Cosmodrome

Loading…

Następne Przeloty (najbliższe 24 godziny)

TLE

ŚwieżeSource: Space-Track

Epoka: Sep 14, 2026, 04:20 UTC

1 10568U 77121K   26257.18066232  .00000291  00000-0  39889-3 0  9990
2 10568  65.7691 163.5019 0190555  65.8009 296.2835 13.65612117419095

Śledź COSMOS 970 DEB w czasie rzeczywistym z AllMySat

Download on the App Store